Change the Weather History Date:

Sunday, August 25, 2013

  Actual Average (KESN) Record (KESN)
Temperature  
Mean Temperature 66 °F -  
Max Temperature 78 °F 86 °F 97 °F (1968)
Min Temperature 55 °F 62 °F 50 °F (1952)
Cooling Degree Days 2    
Growing Degree Days 16 (Base 50)    
Moisture  
Dew Point 57 °F    
Average Humidity 73    
Maximum Humidity 100    
Minimum Humidity 39    
Precipitation  
Precipitation 0.00 in - - ()
Sea Level Pressure  
Sea Level Pressure 30.35 in    
Wind  
Wind Speed 1 mph (SE)    
Max Wind Speed 6 mph    
Max Gust Speed -    
Visibility 10 miles    
Events      
Averages and records for this station are not official NWS values.
T = Trace of Precipitation, MM = Missing Value Source: NWS Daily Summary

Daily Weather History Graph

Daily Weather History Graph

Search for Another Location

Airport or City:

Trip Planner

Search our weather history database for the weather conditions in past years. The results will help you decide how hot, cold, wet, or windy it might be!

Date:

Astronomy

Aug. 25, 2013 Rise Set
Actual Time 6:27 AM EDT 7:44 PM EDT
Civil Twilight 5:59 AM EDT 8:11 PM EDT
Nautical Twilight 5:26 AM EDT 8:44 PM EDT
Astronomical Twilight 4:52 AM EDT 9:18 PM EDT
Moon 10:18 PM EDT (8/25) 11:22 AM EDT (8/25)
Length of Visible Light 14h 11m
Length of Day
13h 16m
Waning Gibbous, 76% of the Moon is Illuminated
Aug 25
Waning Gibbous
Aug 28
Last Quarter
Sep 5
New
Sep 12
First Quarter
Sep 19
Full

Hourly Weather History & Observations

Time (EDT) Temp. Dew Point Humidity Pressure Visibility Wind Dir Wind Speed Gust Speed Precip Events Conditions
12:18 AM 60.8 °F 59.0 °F 94% 30.34 in 7.0 mi Calm Calm - N/A   Clear
12:38 AM 60.8 °F 59.0 °F 94% 30.34 in 10.0 mi Calm Calm - N/A   Clear
12:58 AM 60.8 °F 59.0 °F 94% 30.34 in 10.0 mi Calm Calm - N/A   Clear
1:18 AM 60.8 °F 59.0 °F 94% 30.34 in 10.0 mi Calm Calm - N/A   Clear
1:38 AM 60.8 °F 59.0 °F 94% 30.34 in 10.0 mi Calm Calm - N/A   Clear
1:58 AM 60.8 °F 59.0 °F 94% 30.33 in 10.0 mi Calm Calm - N/A   Clear
2:18 AM 60.8 °F 59.0 °F 94% 30.33 in 10.0 mi Calm Calm - N/A   Clear
2:38 AM 59.0 °F 57.2 °F 94% 30.33 in 7.0 mi Calm Calm - N/A   Clear
2:58 AM 59.0 °F 55.4 °F 88% 30.33 in 10.0 mi Calm Calm - N/A   Clear
3:18 AM 59.0 °F 55.4 °F 88% 30.33 in 10.0 mi Calm Calm - N/A   Clear
3:38 AM 59.0 °F 55.4 °F 88% 30.33 in 10.0 mi Calm Calm - N/A   Clear
3:58 AM 59.0 °F 55.4 °F 88% 30.33 in 10.0 mi Calm Calm - N/A   Clear
4:18 AM 59.0 °F 55.4 °F 88% 30.33 in 10.0 mi Calm Calm - N/A   Clear
4:38 AM 59.0 °F 55.4 °F 88% 30.34 in 10.0 mi Calm Calm - N/A   Clear
4:58 AM 55.4 °F 55.4 °F 100% 30.34 in 10.0 mi Calm Calm - N/A   Clear
5:18 AM 55.4 °F 55.4 °F 100% 30.35 in 10.0 mi Calm Calm - N/A   Clear
5:38 AM 55.4 °F 53.6 °F 94% 30.36 in 10.0 mi Calm Calm - N/A   Clear
5:58 AM 55.4 °F 53.6 °F 94% 30.37 in 10.0 mi Calm Calm - N/A   Clear
6:18 AM 55.4 °F 53.6 °F 94% 30.38 in 10.0 mi Calm Calm - N/A   Clear
6:38 AM 55.4 °F 53.6 °F 94% 30.38 in 10.0 mi Calm Calm - N/A   Clear
6:58 AM 55.4 °F 53.6 °F 94% 30.39 in 10.0 mi Calm Calm - N/A   Clear
7:18 AM 55.4 °F 55.4 °F 100% 30.39 in 10.0 mi Calm Calm - N/A   Clear
7:38 AM 59.0 °F 55.4 °F 88% 30.39 in 10.0 mi Calm Calm - N/A   Scattered Clouds
7:59 AM 60.8 °F 59.0 °F 94% 30.39 in 10.0 mi Calm Calm - N/A   Scattered Clouds
8:19 AM 62.6 °F 60.8 °F 94% 30.41 in 10.0 mi Calm Calm - N/A   Clear
8:39 AM 68.0 °F 64.4 °F 88% 30.41 in 10.0 mi Calm Calm - N/A   Clear
8:59 AM 69.8 °F 64.4 °F 83% 30.41 in 10.0 mi North 3.5 mph - N/A   Clear
9:19 AM 69.8 °F 62.6 °F 78% 30.41 in 10.0 mi Calm Calm - N/A   Clear
9:39 AM 69.8 °F 60.8 °F 73% 30.41 in 10.0 mi Calm Calm - N/A   Clear
9:59 AM 71.6 °F 59.0 °F 64% 30.41 in 10.0 mi ENE 3.5 mph - N/A   Clear
10:19 AM 71.6 °F 59.0 °F 64% 30.41 in 10.0 mi Calm Calm - N/A   Clear
10:39 AM 73.4 °F 59.0 °F 61% 30.42 in 10.0 mi Calm Calm - N/A   Clear
10:59 AM 73.4 °F 57.2 °F 57% 30.42 in 10.0 mi Calm Calm - N/A   Clear
11:19 AM 73.4 °F 55.4 °F 53% 30.41 in 10.0 mi NNE 3.5 mph - N/A   Clear
11:39 AM 75.2 °F 57.2 °F 53% 30.40 in 10.0 mi East 5.8 mph - N/A   Clear
11:59 AM 75.2 °F 59.0 °F 57% 30.40 in 10.0 mi Calm Calm - N/A   Clear
12:19 PM 75.2 °F 57.2 °F 53% 30.40 in 10.0 mi Calm Calm - N/A   Clear
12:39 PM 75.2 °F 57.2 °F 53% 30.39 in 10.0 mi Calm Calm - N/A   Clear
12:59 PM 77.0 °F 57.2 °F 50% 30.39 in 10.0 mi ENE 5.8 mph - N/A   Clear
1:19 PM 77.0 °F 53.6 °F 44% 30.38 in 10.0 mi ESE 4.6 mph - N/A   Clear
1:39 PM 77.0 °F 53.6 °F 44% 30.38 in 10.0 mi SE 3.5 mph - N/A   Clear
1:59 PM 78.8 °F 53.6 °F 42% 30.38 in 10.0 mi ENE 3.5 mph - N/A   Clear
2:19 PM 78.8 °F 51.8 °F 39% 30.36 in 10.0 mi East 4.6 mph - N/A   Clear
2:39 PM 78.8 °F 53.6 °F 42% 30.35 in 10.0 mi East 3.5 mph - N/A   Clear
2:59 PM 78.8 °F 53.6 °F 42% 30.35 in 10.0 mi Calm Calm - N/A   Clear
3:19 PM 78.8 °F 53.6 °F 42% 30.35 in 10.0 mi Calm Calm - N/A   Clear
3:39 PM 78.8 °F 55.4 °F 44% 30.34 in 10.0 mi WSW 4.6 mph - N/A   Clear
3:59 PM 78.8 °F 53.6 °F 42% 30.34 in 10.0 mi SW 3.5 mph - N/A   Clear
4:19 PM 78.8 °F 53.6 °F 42% 30.34 in 10.0 mi SW 3.5 mph - N/A   Clear
4:39 PM 78.8 °F 53.6 °F 42% 30.34 in 10.0 mi East 3.5 mph - N/A   Clear
5:00 PM 78.8 °F 53.6 °F 42% 30.33 in 10.0 mi West 3.5 mph - N/A   Clear
5:20 PM 78.8 °F 53.6 °F 42% 30.33 in 10.0 mi Calm Calm - N/A   Clear
5:40 PM 78.8 °F 53.6 °F 42% 30.32 in 10.0 mi Calm Calm - N/A   Clear
6:00 PM 78.8 °F 59.0 °F 51% 30.32 in 10.0 mi SW 4.6 mph - N/A   Clear
6:20 PM 75.2 °F 59.0 °F 57% 30.31 in 10.0 mi West 3.5 mph - N/A   Clear
6:40 PM 75.2 °F 59.0 °F 57% 30.31 in 10.0 mi West 3.5 mph - N/A   Clear
7:00 PM 75.2 °F 62.6 °F 65% 30.31 in 10.0 mi WSW 3.5 mph - N/A   Clear
7:20 PM 71.6 °F 60.8 °F 69% 30.30 in 10.0 mi West 3.5 mph - N/A   Clear
7:40 PM 69.8 °F 60.8 °F 73% 30.30 in 10.0 mi Calm Calm - N/A   Clear
8:00 PM 69.8 °F 62.6 °F 78% 30.30 in 10.0 mi Calm Calm - N/A   Clear
8:20 PM 68.0 °F 60.8 °F 78% 30.30 in 10.0 mi Calm Calm - N/A   Clear
8:40 PM 66.2 °F 60.8 °F 83% 30.30 in 10.0 mi Calm Calm - N/A   Clear
9:00 PM 64.4 °F 59.0 °F 83% 30.30 in 10.0 mi Calm Calm - N/A   Clear
9:20 PM 64.4 °F 59.0 °F 83% 30.30 in 10.0 mi SE 3.5 mph - N/A   Clear
9:40 PM 62.6 °F 59.0 °F 88% 30.30 in 10.0 mi Calm Calm - N/A   Clear
10:00 PM 62.6 °F 59.0 °F 88% 30.30 in 10.0 mi SSE 3.5 mph - N/A   Clear
10:20 PM 60.8 °F 59.0 °F 94% 30.31 in 10.0 mi Calm Calm - N/A   Clear
10:40 PM 60.8 °F 59.0 °F 94% 30.31 in 10.0 mi SE 3.5 mph - N/A   Clear
11:00 PM 60.8 °F 57.2 °F 88% 30.31 in 10.0 mi SE 3.5 mph - N/A   Clear
11:40 PM 60.8 °F 57.2 °F 88% 30.31 in 10.0 mi Calm Calm - N/A   Clear